Change the Weather History Date:

Friday, November 30, 2012

  Actual Average Record
Temperature  
Mean Temperature 41 °F -  
Max Temperature 45 °F 46 °F 55 °F (2001)
Min Temperature 37 °F 39 °F 30 °F (2008)
Degree Days  
Heating Degree Days 24    
Moisture  
Dew Point 37 °F    
Average Humidity 88    
Maximum Humidity 100    
Minimum Humidity 76    
Precipitation  
Precipitation 0.00 in - - ()
Sea Level Pressure  
Sea Level Pressure 29.88 in    
Wind  
Wind Speed 3 mph ()    
Max Wind Speed 9 mph    
Max Gust Speed -    
Visibility 8.0 miles    
Events Rain    
Averages and records for this station are not official NWS values.
T = Trace of Precipitation, MM = Missing Value Source: Averaged Metar Reports

Daily Weather History Graph

Daily Weather History Graph

Search for Another Location

Airport or City:

Trip Planner

Search our weather history database for the weather conditions in past years. The results will help you decide how hot, cold, wet, or windy it might be!

Date:

Astronomy

Nov. 30, 2012 Rise Set
Actual Time 8:13 AM GMT 4:00 PM GMT
Civil Twilight 7:31 AM GMT 4:43 PM GMT
Nautical Twilight 6:46 AM GMT 5:28 PM GMT
Astronomical Twilight 6:03 AM GMT 6:10 PM GMT
Moon 5:44 PM GMT (11/30) 9:35 AM GMT (11/30)
Length of Visible Light 9h 11m
Length of Day
7h 47m
Full, 97% of the Moon is Illuminated
Nov 30
Full
Dec 6
Last Quarter
Dec 13
New
Dec 20
First Quarter
Dec 28
Full

Hourly Weather History & Observations

Time (GMT) Temp. Windchill Dew Point Humidity Pressure Visibility Wind Dir Wind Speed Gust Speed Precip Events Conditions
12:50 AM 39.2 °F - 37.4 °F 93% 29.83 in - Calm Calm - N/A   Clear
1:50 AM 39.2 °F - 37.4 °F 93% 29.83 in 6.2 mi Variable 2.3 mph - N/A   Partly Cloudy
2:50 AM 39 °F - 37 °F 92% 29.83 in 16 mi West 2.3 mph - -   Mostly Cloudy
2:50 AM 39.2 °F - 37.4 °F 93% 29.83 in - Variable 2.3 mph - N/A   Clear
3:50 AM 39.2 °F - 37.4 °F 93% 29.83 in - NW 2.3 mph - N/A   Clear
4:50 AM 39.2 °F 37.0 °F 37.4 °F 93% 29.83 in 6.2 mi North 3.5 mph - N/A   Partly Cloudy
5:20 AM 37.4 °F - 37.4 °F 100% 29.80 in 6.2 mi NW 2.3 mph - N/A   Partly Cloudy
5:50 AM 37 °F - 36 °F 93% 29.83 in 16 mi North 5.8 mph - -   Scattered Clouds
5:50 AM 37.4 °F 32.8 °F 35.6 °F 93% 29.83 in 6.2 mi North 5.8 mph - N/A   Partly Cloudy
6:20 AM 37.4 °F 33.8 °F 35.6 °F 93% 29.83 in 6.2 mi North 4.6 mph - N/A   Partly Cloudy
6:50 AM 37.4 °F 33.8 °F 35.6 °F 93% 29.83 in 6.2 mi North 4.6 mph - N/A   Partly Cloudy
7:20 AM 37.4 °F 34.9 °F 35.6 °F 93% 29.83 in 6.2 mi North 3.5 mph - N/A   Partly Cloudy
7:50 AM 39.2 °F 35.9 °F 37.4 °F 93% 29.83 in 6.2 mi North 4.6 mph - N/A   Partly Cloudy
8:20 AM 39.2 °F 35.9 °F 35.6 °F 87% 29.83 in 6.2 mi North 4.6 mph - N/A   Partly Cloudy
8:50 AM 39 °F - 36 °F 87% 29.86 in 19 mi NNE 5.8 mph - -   Scattered Clouds
8:50 AM 39.2 °F 35.0 °F 37.4 °F 93% 29.83 in 6.2 mi NNE 5.8 mph - N/A   Partly Cloudy
9:20 AM 41.0 °F 38.0 °F 37.4 °F 87% 29.86 in 6.2 mi NNE 4.6 mph - N/A   Partly Cloudy
9:50 AM 41.0 °F 38.0 °F 37.4 °F 87% 29.86 in 6.2 mi NNE 4.6 mph - N/A   Partly Cloudy
10:20 AM 42.8 °F - 39.2 °F 87% 29.86 in 6.2 mi NNE 2.3 mph - N/A   Partly Cloudy
10:50 AM 42.8 °F 41.1 °F 39.2 °F 87% 29.86 in 6.2 mi NNE 3.5 mph - N/A   Partly Cloudy
11:20 AM 42.8 °F 40.1 °F 39.2 °F 87% 29.86 in 6.2 mi NNE 4.6 mph - N/A   Partly Cloudy
11:50 AM 44 °F - 40 °F 81% 29.89 in 19 mi NE 4.6 mph - -   Scattered Clouds
11:50 AM 44.6 °F 42.2 °F 41.0 °F 87% 29.86 in 6.2 mi NE 4.6 mph - N/A   Partly Cloudy
12:20 PM 44.6 °F 40.2 °F 39.2 °F 81% 29.89 in 6.2 mi ENE 8.1 mph - N/A   Partly Cloudy
12:50 PM 44.6 °F 40.7 °F 39.2 °F 81% 29.89 in 6.2 mi ENE 6.9 mph - N/A   Partly Cloudy
1:20 PM 44.6 °F 41.4 °F 39.2 °F 81% 29.89 in 6.2 mi East 5.8 mph - N/A   Partly Cloudy
1:50 PM 44.6 °F 43.1 °F 39.2 °F 81% 29.89 in 6.2 mi Variable 3.5 mph - N/A   Partly Cloudy
2:20 PM 44.6 °F - 39.2 °F 81% 29.89 in 6.2 mi SSE 2.3 mph - N/A   Partly Cloudy
2:50 PM 44 °F - 39 °F 78% 29.88 in 16 mi South 2.3 mph - -   Scattered Clouds
2:50 PM 44.6 °F - 39.2 °F 81% 29.86 in 6.2 mi South 2.3 mph - N/A   Partly Cloudy
3:20 PM 44.6 °F - 39.2 °F 81% 29.89 in 6.2 mi WNW 2.3 mph - N/A   Partly Cloudy
3:50 PM 42.8 °F 40.1 °F 39.2 °F 87% 29.89 in 6.2 mi NNW 4.6 mph - N/A   Partly Cloudy
4:20 PM 42.8 °F 41.1 °F 39.2 °F 87% 29.92 in 6.2 mi Variable 3.5 mph - N/A   Partly Cloudy
4:50 PM 41.0 °F 38.0 °F 37.4 °F 87% 29.92 in 6.2 mi North 4.6 mph - N/A   Partly Cloudy
5:20 PM 41.0 °F - 37.4 °F 87% 29.92 in 6.2 mi Variable 2.3 mph - N/A   Partly Cloudy
5:50 PM 38 °F - 36 °F 90% 29.92 in 16 mi North 3.5 mph - -   Scattered Clouds
5:50 PM 37.4 °F 34.9 °F 35.6 °F 93% 29.92 in 6.2 mi Variable 3.5 mph - N/A   Partly Cloudy
6:20 PM 39.2 °F 35.0 °F 37.4 °F 93% 29.92 in 6.2 mi NNE 5.8 mph - N/A   Mostly Cloudy
6:50 PM 39.2 °F 37.0 °F 35.6 °F 87% 29.92 in 6.2 mi Variable 3.5 mph - N/A   Partly Cloudy
7:20 PM 39.2 °F 35.9 °F 35.6 °F 87% 29.92 in 6.2 mi North 4.6 mph - N/A   Mostly Cloudy
7:50 PM 37.4 °F - 35.6 °F 93% 29.92 in 6.2 mi North 2.3 mph - N/A   Scattered Clouds
8:20 PM 39.2 °F 35.9 °F 35.6 °F 87% 29.92 in 6.2 mi North 4.6 mph - N/A   Scattered Clouds
8:50 PM 39 °F - 36 °F 86% 29.95 in 16 mi North 3.5 mph - - Rain Light Rain
8:50 PM 39.2 °F 37.0 °F 35.6 °F 87% 29.95 in 6.2 mi North 3.5 mph - N/A Rain Light Rain
9:20 PM 39.2 °F 37.0 °F 37.4 °F 93% 29.95 in 6.2 mi West 3.5 mph - N/A   Scattered Clouds
9:50 PM 37.4 °F - 35.6 °F 93% 29.95 in 6.2 mi Variable 1.2 mph - N/A   Partly Cloudy
10:50 PM 42.8 °F 37.5 °F 35.6 °F 76% 29.95 in 6.2 mi WNW 9.2 mph - N/A   Partly Cloudy
11:50 PM 40 °F - 36 °F 79% 29.95 in 16 mi West 5.8 mph - -   Partly Cloudy
11:50 PM 41.0 °F 37.1 °F 35.6 °F 81% 29.95 in 6.2 mi West 5.8 mph - N/A   Partly Cloudy